OpenBCM V2.0.2 (Linux)

Packet Radio Mailbox

IZ3LSV

[San Dona' di P. JN]

 Login: GUEST





  
CX2SA  > KEP      29.04.20 00:11l 87 Lines 3607 Bytes #999 (0) @ ARL
BID : ARLK034
Read: GUEST
Subj: ARLK034 Keplerian data
Path: IZ3LSV<I0OJJ<I0OJJ<GB7CIP<PE1RRR<K5DAT<N3HYM<CX2SA
Sent: 200428/2203Z @:CX2SA.SAL.URY.SOAM #:30111 [Salto] FBB7.00e $:ARLK034
From: CX2SA@CX2SA.SAL.URY.SOAM
To  : KEP@ARL


ZCZC SK34
QST de W1AW
Keplerian Bulletin 34  ARLK034
>From ARRL Headquarters
Newington, CT  April 28, 2020
To all radio amateurs

SB KEP ARL ARLK034
ARLK034 Keplerian data

Special thanks to AMSAT-NA (AMSAT.ORG) for the following Keplerian
data.

Decode 2-line elsets with the following key:
1 AAAAAU 00  0  0 BBBBB.BBBBBBBB  .CCCCCCCC  00000-0  00000-0 0  DDDZ
2 AAAAA EEE.EEEE FFF.FFFF GGGGGGG HHH.HHHH III.IIII JJ.JJJJJJJJKKKKKZ
KEY: A-CATALOGNUM B-EPOCHTIME C-DECAY D-ELSETNUM E-INCLINATION F-RAAN
G-ECCENTRICITY H-ARGPERIGEE I-MNANOM J-MNMOTION K-ORBITNUM Z-CHECKSUM

0 AO-07
1 7530U 74089B   20119.20637013 -.00000031  00000-0  91516-4 0  9999
2 7530 101.7957  89.2368 0012581 100.1924 331.1254 12.53643107 79936
0 FO-22
1 24278U 96046B   20119.18243804 -.00000031 +00000-0 +25845-5 0  9995
2 24278 098.5766 235.6160 0351051 144.9155 217.5661 13.53097491170089
0 ISS
1 25544U 98067A   20119.70398900  .00001440  00000-0  33911-4 0  9999
2 25544  51.6450 233.3770 0001480 201.0860 301.9598 15.49326504224347
0 SO-50
1 27607U 02058C   20119.14962164 -.00000020  00000-0  17821-4 0  9999
2 27607  64.5545 168.1694 0054338 190.6576 169.3380 14.75629095933435
0 CO-55
1 27844U 03031E   20118.99027620 +.00000035 +00000-0 +35336-4 0  9991
2 27844 098.6834 127.4842 0009519 194.7166 165.3736 14.22233783872925
0 RS-22
1 27939U 03042A   20119.52216567  .00000066  00000-0  20421-4 0  9991
2 27939  98.0825 255.0271 0013787 146.9675 213.2395 14.66853957886696
0 RS-30
1 32953U 08025A   20119.49710403  .00000037  00000-0  19437-3 0  9995
2 32953  82.5004 308.9806 0019437 160.6428 199.5398 12.43095337541425
0 KKS-1
1 33499U 09002H   20119.20136173 +.00000088 +00000-0 +20928-4 0  9996
2 33499 098.3233 332.5215 0007865 288.3905 071.6448 14.75524416605178
0 AO-71
1 37854U 11061E   20118.84713638  .00001167  00000-0  66364-4 0  9992
2 37854 101.7010 183.9994 0158722 212.2093 146.9349 15.07159364464300
0 AO-73
1 39444U 13066AE  20119.13370294 +.00000293 +00000-0 +41972-4 0  9993
2 39444 097.5597 122.1594 0059559 075.7909 284.9911 14.82104666345916
0 UKUBE 1
1 40074U 14037F   20119.34512320  .00000263  00000-0  38625-4 0  9992
2 40074  98.4552 304.6985 0003362 289.6152  70.4700 14.84240394314322
0 XW-2A
1 40903U 15049E   20119.58278513  .00001987  00000-0  47017-4 0  9995
2 40903  97.2927 168.4894 0015042  85.2035  72.5938 15.42922936258786
0 XW-2F
1 40910U 15049M   20119.47156093  .00001092  00000-0  57140-4 0  9994
2 40910  97.4683 123.7576 0014766 168.3181 346.1219 15.17857903254751
0 XW-2B
1 40911U 15049N   20119.47484354  .00000857  00000-0  47796-4 0  9993
2 40911  97.4764 121.9556 0013803 178.5086 334.8049 15.16176627254591
0 IO-86
1 40931U 15052B   20119.36804800  .00000637  00000-0 -40781-6 0  9995
2 40931   5.9969 332.5921 0012904 291.2173  68.6549 14.76632467247842
0 CAS-4B
1 42759U 17034B   20119.52741694  .00000108  00000-0  20041-4 0  9993
2 42759  43.0197 301.3581 0009997  71.8207 322.1067 15.09799513158423
0 CAS-4A
1 42761U 17034D   20119.47593934  .00000247  00000-0  28463-4 0  9992
2 42761  43.0195 300.9734 0010381  72.8986 329.8547 15.09878918158416
0 AO-91
1 43017U 17073E   20119.18630585 +.00000326 +00000-0 +31167-4 0  9995
2 43017 097.7247 033.3601 0256232 213.8812 144.5804 14.78892277131730
0 AO-92
1 43137U 18004AC  20119.45470273  .00001087  00000-0  47798-4 0  9991
2 43137  97.4484 190.9485 0007981 223.6401 136.4206 15.24032792127428

Keplerian bulletins are transmitted twice weekly from W1AW.  The
next scheduled transmission of these data will be Friday, May 1,
2020, at 2230z on Baudot and BPSK31.
NNNN



Read previous mail | Read next mail


 02.05.2026 06:18:34lGo back Go up